CW1852 Weather Reports


Display with metric or nautical units.
time (UTC)temp
F
wind
direction
speed
MPH
gust
MPH
rain 1hr
in
rain 24hr
in
rain mn
in
humidity
%
barometer
mb
20260901131203 62 83 1.0 7.0 0.00 0.00 0.00 88 1017.2
20260901130203 61 104 3.0 8.0 0.00 0.00 0.00 88 1017.1
20260901125203 61 254 2.0 4.0 0.00 0.00 0.00 89 1017.2
20260901124203 61 254 1.0 3.0 0.00 0.00 0.00 91 1017.1
20260901123203 60 254 0.0 3.0 0.00 0.00 0.00 92 1017.1
20260901122203 60 254 0.0 3.0 0.00 0.00 0.00 93 1017.0
20260901121203 59 254 0.0 4.0 0.00 0.00 0.00 93 1016.8
20260901120202 59 254 1.0 2.0 0.00 0.00 0.00 94 1016.9
20260901115204 58 254 0.0 3.0 0.00 0.00 0.00 94 1016.8
20260901114245 58 254 0.0 1.0 0.00 0.00 0.00 95 1016.9
20260901113202 57 255 0.0 1.0 0.00 0.00 0.00 95 1016.7
20260901112203 56 254 0.0 1.0 0.00 0.00 0.00 96 1016.6
20260901111204 55 254 0.0 1.0 0.00 0.00 0.00 96 1016.5
20260901110202 55 255 0.0 0.0 0.00 0.00 0.00 96 1016.6
20260901105202 54 255 0.0 0.0 0.00 0.00 0.00 96 1016.5
20260901104203 53 255 0.0 0.0 0.00 0.00 0.00 96 1016.5
20260901103203 53 255 0.0 0.0 0.00 0.00 0.00 96 1016.4
20260901102203 53 255 0.0 0.0 0.00 0.00 0.00 96 1016.2
20260901101203 53 255 0.0 0.0 0.00 0.00 0.00 96 1016.3
20260901100202 53 255 0.0 0.0 0.00 0.00 0.00 96 1016.2
20260901095203 52 255 0.0 0.0 0.00 0.00 0.00 95 1015.9
20260901094203 52 255 0.0 0.0 0.00 0.00 0.00 95 1015.9
20260901093203 52 255 0.0 0.0 0.00 0.00 0.00 95 1016.0
20260901092224 52 255 0.0 0.0 0.00 0.00 0.00 95 1016.1
20260901091224 52 255 0.0 0.0 0.00 0.00 0.00 95 1016.1
20260901090203 52 255 0.0 1.0 0.00 0.00 0.00 95 1016.3
20260901085203 52 255 0.0 0.0 0.00 0.00 0.00 95 1016.2
20260901084204 52 255 0.0 0.0 0.00 0.00 0.00 95 1016.2
20260901083202 53 255 0.0 0.0 0.00 0.00 0.00 95 1016.1
20260901082224 53 255 0.0 2.0 0.00 0.00 0.00 95 1016.2
20260901081202 53 255 1.0 2.0 0.00 0.00 0.00 95 1016.3
20260901080203 53 255 0.0 1.0 0.00 0.00 0.00 95 1016.3
20260901075203 53 254 0.0 1.0 0.00 0.00 0.00 95 1016.3
20260901074203 53 255 1.0 2.0 0.00 0.00 0.00 95 1016.4
20260901073203 53 254 1.0 1.0 0.00 0.00 0.00 95 1016.3
20260901072202 53 255 0.0 1.0 0.00 0.00 0.00 95 1016.4
20260901071203 53 255 0.0 1.0 0.00 0.00 0.00 95 1016.5
20260901070202 53 255 0.0 0.0 0.00 0.00 0.00 95 1016.5
20260901065224 53 255 0.0 0.0 0.00 0.00 0.00 95 1016.4
20260901064203 54 255 0.0 1.0 0.00 0.00 0.00 95 1016.5
20260901063203 53 255 0.0 0.0 0.00 0.00 0.00 95 1016.6
20260901062203 54 255 0.0 0.0 0.00 0.00 0.00 95 1016.6
20260901061202 54 255 0.0 1.0 0.00 0.00 0.00 95 1016.8
20260901060203 54 254 0.0 1.0 0.00 0.00 0.00 95 1016.8
20260901055203 55 255 0.0 1.0 0.00 0.00 0.00 94 1016.7
20260901054203 55 254 0.0 2.0 0.00 0.00 0.00 95 1016.6
20260901053203 55 254 0.0 2.0 0.00 0.00 0.00 94 1016.5
20260901052202 55 255 0.0 1.0 0.00 0.00 0.00 94 1016.5
20260901051203 55 254 0.0 1.0 0.00 0.00 0.00 94 1016.4
20260901050202 54 254 0.0 1.0 0.00 0.00 0.00 94 1016.5
20260901045204 54 255 0.0 0.0 0.00 0.00 0.00 94 1016.7
20260901044245 54 255 0.0 0.0 0.00 0.00 0.00 94 1016.7
20260901043202 54 255 0.0 0.0 0.00 0.01 0.00 94 1016.7
20260901042203 54 255 0.0 0.0 0.00 0.01 0.00 94 1016.7
20260901040203 54 255 0.0 0.0 0.00 0.01 0.00 93 1016.8
20260901035223 54 255 0.0 0.0 0.00 0.01 0.01 94 1016.7
20260901034203 54 255 0.0 0.0 0.00 0.01 0.01 94 1016.7
20260901033202 54 255 0.0 0.0 0.00 0.01 0.01 94 1016.8
20260901032203 54 255 0.0 0.0 0.00 0.01 0.01 93 1016.9
20260901031203 54 255 0.0 0.0 0.00 0.01 0.01 93 1016.9
20260901030202 54 255 0.0 0.0 0.00 0.01 0.01 93 1017.0
20260901025203 54 255 0.0 0.0 0.00 0.01 0.01 93 1017.0
20260901024202 54 255 0.0 0.0 0.00 0.01 0.01 92 1017.2
20260901023203 55 255 0.0 0.0 0.00 0.01 0.01 92 1017.2
20260901022203 55 255 0.0 0.0 0.00 0.01 0.01 91 1017.1
20260901021202 55 254 0.0 1.0 0.00 0.01 0.01 91 1017.0
20260901020203 56 254 0.0 2.0 0.00 0.01 0.01 91 1017.0
20260901015203 56 254 0.0 1.0 0.00 0.01 0.01 91 1016.9
20260901014203 55 254 0.0 1.0 0.00 0.01 0.01 90 1016.9
20260901013203 56 255 0.0 0.0 0.00 0.01 0.01 90 1016.9
20260901012203 56 255 0.0 0.0 0.00 0.01 0.01 89 1017.0
20260901011203 56 255 0.0 1.0 0.00 0.01 0.01 89 1017.0
20260901010203 56 255 0.0 1.0 0.00 0.01 0.01 88 1016.9
20260901005203 57 255 0.0 1.0 0.00 0.01 0.01 87 1016.9
20260901004203 57 254 0.0 1.0 0.00 0.01 0.01 87 1017.0
20260901003223 57 255 0.0 0.0 0.00 0.01 0.01 85 1016.9
20260901002224 58 255 0.0 0.0 0.00 0.01 0.01 84 1016.8
20260901001203 59 255 0.0 2.0 0.00 0.01 0.01 82 1016.8
20260901000225 60 254 0.0 4.0 0.00 0.01 0.01 81 1016.7
20260831235245 60 254 2.0 7.0 0.00 0.01 0.01 81 1016.8
20260831234245 61 253 3.0 7.0 0.00 0.01 0.01 81 1016.9
20260831233202 61 235 3.0 5.0 0.00 0.01 0.01 80 1016.9
20260831232203 61 235 0.0 3.0 0.00 0.01 0.01 79 1016.7
20260831231203 62 235 1.0 4.0 0.00 0.01 0.01 79 1016.8
20260831230203 62 220 1.0 4.0 0.00 0.01 0.01 79 1016.7
20260831224202 63 152 1.0 7.0 0.00 0.01 0.01 78 1016.6
20260831223203 64 281 3.0 7.0 0.00 0.01 0.01 77 1016.6
20260831222203 64 165 2.0 9.0 0.00 0.01 0.01 77 1016.6
20260831221203 64 174 2.0 7.0 0.00 0.01 0.01 76 1016.8
20260831220203 65 197 3.0 8.0 0.00 0.01 0.01 74 1016.9
20260831215203 65 197 3.0 11.0 0.00 0.01 0.01 72 1016.8
20260831214203 66 185 5.0 9.0 0.00 0.01 0.01 73 1017.0
20260831213203 66 161 2.0 9.0 0.00 0.01 0.01 72 1016.9
20260831212223 67 187 7.0 13.0 0.00 0.01 0.01 70 1017.2
20260831211203 68 203 5.0 12.0 0.00 0.01 0.01 68 1017.1
20260831210204 69 174 4.0 10.0 0.00 0.01 0.01 65 1017.1
20260831205245 69 196 4.0 13.0 0.00 0.01 0.01 64 1017.0
20260831204203 70 206 3.0 13.0 0.00 0.01 0.01 57 1017.0
20260831203203 72 188 6.0 10.0 0.00 0.01 0.01 49 1016.8
20260831202223 73 186 4.0 9.0 0.00 0.01 0.01 48 1016.9
20260831201224 72 184 4.0 10.0 0.00 0.01 0.01 48 1016.9
20260831200203 73 193 4.0 10.0 0.00 0.01 0.01 47 1017.0
20260831195202 73 196 4.0 11.0 0.00 0.01 0.01 48 1017.0
20260831194203 73 183 5.0 10.0 0.00 0.01 0.01 49 1017.1
20260831193202 73 185 5.0 9.0 0.00 0.01 0.01 52 1017.0
20260831192224 73 176 6.0 12.0 0.00 0.01 0.01 54 1017.0
20260831190203 73 169 4.0 10.0 0.00 0.01 0.01 59 1017.2
20260831185203 75 174 3.0 7.0 0.00 0.01 0.01 48 1017.2
20260831184203 76 184 5.0 7.0 0.00 0.01 0.01 47 1017.2
20260831183202 74 179 5.0 9.0 0.00 0.01 0.01 50 1017.3
20260831182225 75 194 2.0 10.0 0.00 0.01 0.01 50 1017.4
20260831181203 74 176 4.0 10.0 0.00 0.01 0.01 50 1017.6
20260831180202 74 184 5.0 9.0 0.00 0.01 0.01 58 1017.6
20260831175203 75 176 2.0 5.0 0.00 0.01 0.01 55 1017.6
20260831174203 74 188 4.0 7.0 0.00 0.01 0.01 51 1017.8
20260831173203 75 159 2.0 6.0 0.00 0.01 0.01 49 1017.6
20260831172224 75 195 2.0 9.0 0.00 0.01 0.01 51 1017.6
20260831171202 74 188 4.0 9.0 0.00 0.01 0.01 51 1017.7
20260831170203 73 289 2.0 8.0 0.00 0.01 0.01 49 1017.9
20260831165202 75 295 3.0 8.0 0.00 0.01 0.01 46 1018.0
20260831164203 73 332 2.0 10.0 0.00 0.01 0.01 47 1018.0
20260831163225 74 339 1.0 4.0 0.00 0.01 0.01 48 1018.2
20260831162202 72 330 1.0 9.0 0.00 0.01 0.01 47 1018.4
20260831161224 71 61 3.0 6.0 0.00 0.01 0.01 52 1018.3
20260831160203 72 41 2.0 9.0 0.00 0.01 0.01 52 1018.4
20260831155203 72 55 2.0 7.0 0.00 0.01 0.01 52 1018.4
20260831154224 71 20 2.0 7.0 0.00 0.01 0.01 57 1018.4
20260831153202 71 338 2.0 10.0 0.00 0.01 0.01 56 1018.5
20260831152204 70 291 3.0 8.0 0.00 0.01 0.01 58 1018.6
20260831151224 70 273 2.0 6.0 0.00 0.01 0.01 60 1018.7
20260831150224 70 283 1.0 8.0 0.00 0.01 0.01 59 1018.8
20260831145202 68 75 2.0 7.0 0.00 0.01 0.01 65 1018.9
20260831144203 67 321 3.0 8.0 0.00 0.01 0.01 63 1018.8
20260831143203 68 286 3.0 8.0 0.00 0.01 0.01 63 1019.0
20260831142203 67 320 3.0 5.0 0.00 0.01 0.01 67 1019.0
20260831141203 67 40 2.0 6.0 0.00 0.01 0.01 68 1019.1
20260831140202 66 285 4.0 8.0 0.00 0.01 0.01 68 1019.0
20260831135224 66 283 3.0 11.0 0.00 0.01 0.01 71 1018.9
20260831133202 64 305 3.0 6.0 0.00 0.01 0.01 75 1018.5
20260831132203 62 320 2.0 9.0 0.00 0.01 0.01 77 1018.4